STARLINK-2640

operational
NORAD ID: 48438 Int'l Des: 2021-040 Owner: SPXS Country: US Constellation: starlink
LEOCIRCULARSTARLINK_TYPE

关于 STARLINK-2640

正在加载描述...

实时位置

正在加载3D地球...

即将过境

高度历史

Altitude vs Time

uPlot chart will show altitude changes over time

两行轨道根数

1 48438U 21040L 25251.45971609 .00000245 00000-0 35362-4 0 9994
2 48438 53.0551 279.9495 0001339 94.9393 265.1748 15.06391699239158
Epoch: Sep 8, 2025 • Age: 24 hours

当前状态

高度 566.2 km
速度 7.58 km/s
星下点 -51.94°S, 55.51°E
发射日期 May 9, 2021
运行时间 4.3 years
类型 internet

技术详情

分类 Payload
质量 260.00 kg
干质量 248.00 kg
总质量 260.00 kg
长度 0.20 m
直径 2.80 m
跨度 9.00 m
形状 Box + pan
制造商 SPXS
平台类型 Starlink
阶段状态 In Orbit
所有者/国家 SPXS/US

大型星座

Loading constellations...